Accueil
METAR-TAF:

METAR-TAF

Aéroports :

Comté de Franklin, Vermont, États-Unis

latitude: 44-56-25N, longitude: 073-05-51W, altitude: 69 m

Observation

Le bulletin a été fait il y a 18 minutes, à 17:15 UTC
Vent 3 kt de nord-ouest
Température 17°C
Humidité 77%
Pression 1013 hPa
Visibilité: 16.1 km
Nuages fragmentés à une hauteur de 2200 ft
Ciel couvert à une hauteur de 3000 ft

METAR: KFSO 201715Z AUTO 31003KT 10SM BKN022 OVC030 17/13 A2992 RMK AO2 T01680131

Heure: 13:33 (17:33 UTC)


TAF: absent

Observations et prévisions météorologiques de plus de 4000 aéroports (messages METAR et TAF).

Les stations disponibles sont représentées par des disques jaunes et rouges sur la carte.

Passer la souris dessus pour voir le nom de la station.

Cliquer dessus pour voir les observations et prévisions météorologiques.

Pour changer de carte: cliquez sur les boutons verts avec une croix noire pour zoomer, sur le bouton vert avec un tiret pour effectuer un zoom arrière, ou sur les flèches vertes pour les cartes adjacentes.


METAR-TAF: